Location: Unspecified
(0.0000°N, 0.0000°E)
Time: 08:04:49
(UTC+01:00)

GPS 2-15 Rocket1 - Visible Passes

Search period start: 31 January 2015 00:00
Search period end: 10 February 2015 00:00
Orbit: 627 x 679 km, 19.8° (Epoch: 29 January)

Date Brightness Start Highest point End Pass type
(mag) Time Alt. Az. Time Alt. Az. Time Alt. Az.
31 Jan 5.4 06:21:49 10° NNW 06:24:07 13° NNE 06:26:31 10° NE visible
31 Jan 3.7 20:17:34 10° SW 20:22:16 48° SSE 20:24:36 27° E visible
31 Jan 6.1 22:01:50 10° W 22:02:18 13° W 22:02:18 13° W visible
01 Feb 3.0 20:44:39 10° WSW 20:49:32 88° NNW 20:50:08 69° ENE visible
02 Feb 5.3 05:34:07 15° N 05:34:23 15° NNE 05:37:09 10° NE visible
02 Feb 4.3 21:12:08 10° W 21:15:41 38° WNW 21:15:41 38° WNW visible
03 Feb 4.7 05:59:39 18° NNW 06:01:51 24° NNE 06:05:48 10° ENE visible
03 Feb 3.2 19:54:54 10° WSW 19:59:42 78° NNW 20:03:33 16° ENE visible
03 Feb 5.7 21:40:06 10° WNW 21:41:15 15° WNW 21:41:15 15° WNW visible
04 Feb 6.0 04:47:31 11° NE 04:47:31 11° NE 04:47:44 10° NE visible
04 Feb 3.9 06:25:13 13° NW 06:29:13 44° NNE 06:33:49 10° E visible
04 Feb 4.0 20:22:27 10° W 20:26:59 40° NNW 20:29:07 26° NNE visible
05 Feb 4.9 05:13:05 25° NE 05:13:05 25° NE 05:16:12 10° ENE visible
05 Feb 4.8 20:50:32 10° WNW 20:54:20 23° NNW 20:54:42 23° N visible
06 Feb 3.6 05:38:39 45° N 05:39:23 49° NNE 05:44:07 10° E visible
06 Feb 4.3 19:32:48 10° W 19:37:10 36° NNW 19:41:35 10° NE visible
06 Feb 5.7 21:19:16 10° NW 21:20:16 12° NW 21:20:16 12° NW visible
07 Feb 6.3 04:26:31 10° E 04:26:31 10° E 04:26:34 10° E visible
07 Feb 3.1 06:04:13 30° WNW 06:06:38 85° SSW 06:11:31 10° ESE visible
07 Feb 5.0 20:00:59 10° WNW 20:04:33 20° NNW 20:08:06 10° NNE visible
08 Feb 5.1 04:52:05 26° E 04:52:05 26° E 04:54:22 10° E visible
08 Feb 3.9 06:29:47 13° W 06:33:53 44° SSW 06:38:32 10° SE visible
08 Feb 5.4 20:29:55 10° NW 20:32:03 13° NNW 20:33:41 11° N visible
09 Feb 3.6 05:17:38 59° SE 05:17:38 59° SE 05:21:41 10° ESE visible
